M I D A S
Marine Information and Data Acquisition System
Tripno 2298 of the Zeeleeuw from 2012-04-27 08:13:43 to 2012-04-27 12:59:57
Back to CruiseResearch ActivitiesStationsMapUnderway DataData graphs

EquipmentUnitsComments
TimeDGPSUTC
LatitudeDGPSDM.mWGS84
LongitudeDGPSDM.mWGS84
SpeedMeteo Stationm/sRelative wind speed
DirectionMeteo StationdegRelative wind direction
TemperatureMeteo Stationdeg CelciusAir temperature
PressureMeteo StationPaAtmospheric pressure
HumidityMeteo Station%Relative humidity
Missing or incorrect values are displayed as -999
Metereological data collected by the RV Zeeleeuw from 2012-04-27 08:11:11 to 2012-04-27 15:30:21
Time Latitude Longitude Speed Direction Temperature Pressure Humidity
2012-04-27 08:12 51°13.658 2°55.928 5.5 30 11.4 101210 45
2012-04-27 08:13 51°13.682 2°55.814 5.3 27 11.4 101210 47
2012-04-27 08:14 51°13.696 2°55.755 4.2 34 11.5 101200 46
2012-04-27 08:15 51°13.698 2°55.755 5.9 21 11.6 101210 45
2012-04-27 08:16 51°13.728 2°55.723 2.6 258 11.6 101220 45
2012-04-27 08:17 51°13.83 2°55.64 4.2 255 11.7 101220 46
2012-04-27 08:18 51°13.943 2°55.564 2.3 256 11.8 101210 47
2012-04-27 08:19 51°14.061 2°55.486 3.3 20 11.9 101220 46
2012-04-27 08:20 51°14.184 2°55.391 2.9 21 12 101220 45
2012-04-27 08:21 51°14.341 2°55.244 7.2 25 12.1 101200 45
2012-04-27 08:22 51°14.516 2°55.077 7.3 254 12.1 101220 45
2012-04-27 08:23 51°14.651 2°54.855 11.8 20 12.1 101210 46
2012-04-27 08:24 51°14.648 2°54.543 7.4 323 12 101170 45
2012-04-27 08:25 51°14.52 2°54.289 16.2 327 11.9 101180 45
2012-04-27 08:26 51°14.379 2°54.042 12.4 326 11.7 101180 46
2012-04-27 08:27 51°14.236 2°53.797 13.4 325 11.6 101180 46
2012-04-27 08:28 51°14.098 2°53.553 16.5 323 11.6 101180 46
2012-04-27 08:29 51°13.996 2°53.397 12 323 11.5 101190 46
2012-04-27 08:30 51°13.927 2°53.276 10.9 318 11.5 101200 45
2012-04-27 08:31 51°13.879 2°53.162 7.4 323 11.5 101190 45
2012-04-27 08:32 51°13.838 2°53.078 11.1 324 11.5 101200 47
2012-04-27 08:33 51°13.804 2°53.014 8.2 323 11.4 101200 45
2012-04-27 08:34 51°13.779 2°52.966 10.2 317 11.5 101210 46
2012-04-27 08:35 51°13.764 2°52.921 7.4 23 11.6 101200 46
2012-04-27 08:36 51°13.753 2°52.88 8.4 316 11.6 101210 47
2012-04-27 08:37 51°13.746 2°52.839 8.9 24 11.5 101210 45
2012-04-27 08:38 51°13.751 2°52.765 10.3 254 11.5 101220 46
2012-04-27 08:39 51°13.794 2°52.712 7.2 24 11.6 101220 46
2012-04-27 08:40 51°13.852 2°52.665 8.8 251 11.6 101230 45
2012-04-27 08:41 51°13.84 2°52.54 9.9 323 11.6 101220 45
2012-04-27 08:42 51°13.781 2°52.516 10.8 359 11.5 101210 45
2012-04-27 08:43 51°13.742 2°52.546 9.8 4 11.4 101210 46
2012-04-27 08:44 51°13.718 2°52.566 10.5 7 11.4 101210 46
2012-04-27 08:45 51°13.704 2°52.578 7.3 7 11.3 101220 45
2012-04-27 08:46 51°13.694 2°52.583 7.2 12 11.3 101220 46
2012-04-27 08:47 51°13.689 2°52.585 9.5 9 11.3 101210 46
2012-04-27 08:48 51°13.686 2°52.585 10.4 16 11.4 101220 46
2012-04-27 08:49 51°13.684 2°52.582 8 15 11.4 101210 47
2012-04-27 08:50 51°13.683 2°52.578 9 18 11.4 101220 46
2012-04-27 08:51 51°13.684 2°52.574 7.9 21 11.4 101220 46
2012-04-27 08:52 51°13.684 2°52.567 8.3 20 11.4 101230 45
2012-04-27 08:53 51°13.684 2°52.56 7.9 18 11.5 101230 47
2012-04-27 08:54 51°13.686 2°52.553 8.4 25 11.5 101230 46
2012-04-27 08:55 51°13.687 2°52.545 7.6 21 11.4 101240 45
2012-04-27 08:56 51°13.689 2°52.538 8.3 20 11.5 101240 46
2012-04-27 08:57 51°13.689 2°52.531 8.5 20 11.5 101240 45
2012-04-27 08:58 51°13.69 2°52.522 7 25 11.6 101240 46
2012-04-27 08:59 51°13.691 2°52.513 7.5 26 11.6 101250 46
2012-04-27 09:00 51°13.691 2°52.506 7.9 22 11.7 101240 46
2012-04-27 09:01 51°13.692 2°52.5 7.7 15 11.7 101240 45
2012-04-27 09:02 51°13.691 2°52.493 6.6 20 11.6 101240 45
2012-04-27 09:03 51°13.691 2°52.486 8 23 11.6 101240 46
2012-04-27 09:04 51°13.69 2°52.479 7.8 21 11.7 101240 47
2012-04-27 09:05 51°13.687 2°52.474 7.7 16 11.7 101250 45
2012-04-27 09:06 51°13.672 2°52.488 7.3 3 11.6 101240 46
2012-04-27 09:07 51°13.649 2°52.516 9.5 13 11.7 101240 46
2012-04-27 09:08 51°13.643 2°52.577 6.8 36 11.7 101250 45
2012-04-27 09:09 51°13.647 2°52.633 6.9 39 11.7 101250 46
2012-04-27 09:10 51°13.693 2°52.653 5.9 19 11.7 101260 44
2012-04-27 09:11 51°13.744 2°52.613 8.2 270 11.8 101270 46
2012-04-27 09:12 51°13.785 2°52.563 5 267 11.9 101260 46
2012-04-27 09:13 51°13.816 2°52.506 7.7 261 11.9 101250 44
2012-04-27 09:14 51°13.843 2°52.446 9.6 260 11.9 101250 46
2012-04-27 09:15 51°13.862 2°52.398 5.7 264 11.8 101250 45
2012-04-27 09:16 51°13.869 2°52.374 8.9 264 11.9 101250 44
2012-04-27 09:17 51°13.867 2°52.366 6.3 267 11.8 101250 43
2012-04-27 09:18 51°13.859 2°52.366 8.4 28 11.9 101260 45
2012-04-27 09:19 51°13.845 2°52.365 8.6 25 11.9 101250 44
2012-04-27 09:20 51°13.827 2°52.356 8.1 21 11.8 101260 45
2012-04-27 09:21 51°13.806 2°52.34 5 23 11.8 101260 45
2012-04-27 09:22 51°13.788 2°52.315 9.4 27 11.9 101260 42
2012-04-27 09:23 51°13.777 2°52.29 7.8 45 11.9 101280 44
2012-04-27 09:24 51°13.776 2°52.29 8.8 26 11.9 101270 43
2012-04-27 09:25 51°13.767 2°52.323 9 20 11.9 101270 43
2012-04-27 09:26 51°13.75 2°52.363 10.6 14 11.9 101270 43
2012-04-27 09:27 51°13.734 2°52.389 6.7 5 11.9 101260 42
2012-04-27 09:28 51°13.718 2°52.399 7.1 7 12 101250 44
2012-04-27 09:29 51°13.707 2°52.398 7.7 9 12 101260 44
2012-04-27 09:30 51°13.676 2°52.403 8.2 348 12 101250 45
2012-04-27 09:31 51°13.612 2°52.361 9.8 335 11.9 101250 45
2012-04-27 09:32 51°13.542 2°52.286 8.7 332 12 101250 45
2012-04-27 09:33 51°13.494 2°52.221 10.9 328 12.1 101260 44
2012-04-27 09:34 51°13.464 2°52.172 11.4 317 12.1 101250 44
2012-04-27 09:35 51°13.448 2°52.127 8.5 29 12.2 101250 44
2012-04-27 09:36 51°13.44 2°52.088 9.1 27 12.2 101260 43
2012-04-27 09:37 51°13.435 2°52.054 7.6 26 12.2 101260 44
2012-04-27 09:38 51°13.433 2°52.025 9.1 25 12.2 101270 45
2012-04-27 09:39 51°13.434 2°51.998 7.8 246 12.2 101260 43
2012-04-27 09:40 51°13.434 2°51.953 7.6 29 12.2 101270 44
2012-04-27 09:41 51°13.424 2°51.895 4 25 12.2 101260 43
2012-04-27 09:42 51°13.409 2°51.845 6.2 318 12.2 101260 44
2012-04-27 09:43 51°13.396 2°51.811 6.5 316 12.2 101260 44
2012-04-27 09:44 51°13.39 2°51.783 9.2 25 12.2 101260 44
2012-04-27 09:45 51°13.39 2°51.761 7.4 23 12.2 101260 43
2012-04-27 09:46 51°13.388 2°51.717 7.2 27 12.2 101270 43
2012-04-27 09:47 51°13.361 2°51.656 7.2 335 12.2 101260 44
2012-04-27 09:48 51°13.323 2°51.642 8.2 360 12.2 101270 43
2012-04-27 09:49 51°13.295 2°51.652 6.7 5 12.1 101270 44
2012-04-27 09:50 51°13.271 2°51.657 6.8 3 12.1 101270 44
2012-04-27 09:51 51°13.232 2°51.647 6.7 328 12.1 101280 44
2012-04-27 09:52 51°13.196 2°51.566 6.6 23 12.2 101270 46
2012-04-27 09:53 51°13.212 2°51.473 7.9 256 12.2 101280 44
2012-04-27 09:54 51°13.255 2°51.403 5.4 261 12.2 101290 45
2012-04-27 09:55 51°13.303 2°51.347 5.4 267 12.2 101290 45
2012-04-27 09:56 51°13.331 2°51.297 6.3 264 12.2 101290 44
2012-04-27 09:57 51°13.344 2°51.255 6.6 258 12.2 101300 44
2012-04-27 09:58 51°13.339 2°51.24 4.7 268 12.2 101290 46
2012-04-27 09:59 51°13.325 2°51.237 7.8 29 12.2 101300 45
2012-04-27 10:00 51°13.303 2°51.233 9.3 23 12.2 101300 45
2012-04-27 10:01 51°13.286 2°51.222 6.5 25 12.2 101300 46
2012-04-27 10:02 51°13.276 2°51.208 6.9 26 12.2 101300 46
2012-04-27 10:03 51°13.27 2°51.193 6.4 28 12.2 101290 46
2012-04-27 10:04 51°13.267 2°51.179 7.2 25 12.2 101290 46
2012-04-27 10:05 51°13.266 2°51.164 7.1 27 12.2 101300 47
2012-04-27 10:06 51°13.266 2°51.147 9.9 24 12.1 101300 46
2012-04-27 10:07 51°13.266 2°51.129 5.1 266 12.1 101300 46
2012-04-27 10:08 51°13.265 2°51.112 5.6 265 12.1 101300 46
2012-04-27 10:09 51°13.264 2°51.096 6.6 265 12.1 101310 47
2012-04-27 10:10 51°13.264 2°51.081 7.7 258 12.2 101290 46
2012-04-27 10:11 51°13.263 2°51.067 8.6 265 12.2 101290 47
2012-04-27 10:12 51°13.263 2°51.055 7.1 269 12.2 101300 46
2012-04-27 10:13 51°13.263 2°51.041 4.7 265 12.2 101300 45
2012-04-27 10:14 51°13.262 2°51.028 6.5 266 12.2 101300 46
2012-04-27 10:15 51°13.261 2°51.016 6.3 266 12.2 101310 46
2012-04-27 10:16 51°13.26 2°51.002 6 262 12.2 101290 46
2012-04-27 10:17 51°13.259 2°50.99 5.8 264 12.2 101300 47
2012-04-27 10:18 51°13.257 2°50.978 6.5 269 12.2 101300 47
2012-04-27 10:19 51°13.256 2°50.965 6.5 270 12.2 101300 47
2012-04-27 10:20 51°13.256 2°50.95 8.9 264 12.2 101300 46
2012-04-27 10:21 51°13.256 2°50.937 7.5 262 12.2 101290 47
2012-04-27 10:22 51°13.256 2°50.927 8.6 263 12.2 101290 47
2012-04-27 10:23 51°13.251 2°50.924 7.8 14 12.2 101290 46
2012-04-27 10:24 51°13.238 2°50.923 8.4 28 12.3 101310 46
2012-04-27 10:25 51°13.221 2°50.913 8.6 29 12.3 101310 46
2012-04-27 10:26 51°13.206 2°50.899 8.3 26 12.2 101310 47
2012-04-27 10:27 51°13.199 2°50.886 10.5 27 12.2 101300 47
2012-04-27 10:28 51°13.201 2°50.877 10.6 24 12.3 101320 45
2012-04-27 10:29 51°13.207 2°50.866 8.3 23 12.4 101310 46
2012-04-27 10:30 51°13.213 2°50.85 5.6 268 12.4 101310 46
2012-04-27 10:31 51°13.218 2°50.836 6.9 263 12.3 101310 46
2012-04-27 10:32 51°13.22 2°50.823 8.4 262 12.2 101310 46
2012-04-27 10:33 51°13.221 2°50.812 7.8 266 12.2 101310 46
2012-04-27 10:34 51°13.221 2°50.804 6.3 265 12.2 101320 45
2012-04-27 10:35 51°13.222 2°50.798 7.7 264 12.2 101330 44
2012-04-27 10:36 51°13.222 2°50.792 8.1 263 12.2 101330 44
2012-04-27 10:37 51°13.223 2°50.787 5.8 266 12.3 101330 45
2012-04-27 10:38 51°13.223 2°50.781 6.3 267 12.2 101320 45
2012-04-27 10:39 51°13.224 2°50.775 7.9 266 12.2 101330 44
2012-04-27 10:40 51°13.226 2°50.768 8.6 264 12.3 101320 44
2012-04-27 10:41 51°13.226 2°50.762 8.4 263 12.2 101320 45
2012-04-27 10:42 51°13.226 2°50.757 5.4 267 12.2 101320 44
2012-04-27 10:43 51°13.227 2°50.752 5.8 268 12.2 101320 44
2012-04-27 10:44 51°13.227 2°50.748 6 264 12.2 101340 45
2012-04-27 10:45 51°13.226 2°50.74 6.7 263 12.2 101330 45
2012-04-27 10:46 51°13.226 2°50.733 5.6 265 12.1 101320 45
2012-04-27 10:47 51°13.225 2°50.727 6 265 12.1 101320 45
2012-04-27 10:48 51°13.224 2°50.72 5.1 265 12.1 101320 46
2012-04-27 10:49 51°13.222 2°50.714 5.4 267 12.1 101330 45
2012-04-27 10:50 51°13.219 2°50.706 4.8 265 12.1 101320 47
2012-04-27 10:51 51°13.218 2°50.7 8.3 262 12.1 101330 46
2012-04-27 10:52 51°13.216 2°50.694 7.8 269 12.1 101340 46
2012-04-27 10:53 51°13.214 2°50.687 6.1 266 12.1 101340 46
2012-04-27 10:54 51°13.213 2°50.679 5.1 269 12.1 101330 47
2012-04-27 10:55 51°13.212 2°50.669 6.8 270 12.1 101330 46
2012-04-27 10:56 51°13.211 2°50.662 5.5 266 12.1 101330 46
2012-04-27 10:57 51°13.209 2°50.654 5.5 264 12.1 101330 47
2012-04-27 10:58 51°13.208 2°50.648 8.5 264 12 101330 46
2012-04-27 10:59 51°13.207 2°50.642 7.2 267 12.1 101340 46
2012-04-27 11:00 51°13.207 2°50.633 5.6 267 12.1 101340 45
2012-04-27 11:01 51°13.206 2°50.625 6.3 266 12.1 101340 46
2012-04-27 11:02 51°13.207 2°50.618 6.5 265 12.1 101350 45
2012-04-27 11:03 51°13.207 2°50.612 5.9 266 12.1 101340 46
2012-04-27 11:04 51°13.208 2°50.607 6 266 12.1 101350 45
2012-04-27 11:05 51°13.207 2°50.599 6.1 268 12.1 101330 47
2012-04-27 11:06 51°13.199 2°50.597 8 21 12 101350 45
2012-04-27 11:07 51°13.18 2°50.593 8.8 25 12 101350 47
2012-04-27 11:08 51°13.158 2°50.578 9.7 24 12 101360 46
2012-04-27 11:09 51°13.142 2°50.56 7.7 23 12 101360 46
2012-04-27 11:10 51°13.141 2°50.556 6 25 12.1 101340 48
2012-04-27 11:11 51°13.144 2°50.567 7.9 42 12.1 101340 46
2012-04-27 11:12 51°13.142 2°50.585 12.4 30 12.1 101310 46
2012-04-27 11:13 51°13.133 2°50.596 9.3 24 12 101330 46
2012-04-27 11:14 51°13.122 2°50.602 12 18 12 101320 46
2012-04-27 11:15 51°13.114 2°50.602 12 14 12 101320 45
2012-04-27 11:16 51°13.109 2°50.598 9.9 14 12 101330 47
2012-04-27 11:17 51°13.106 2°50.594 9.1 15 12 101340 46
2012-04-27 11:18 51°13.103 2°50.589 8.4 14 11.9 101340 47
2012-04-27 11:19 51°13.101 2°50.582 6.9 12 11.9 101340 48
2012-04-27 11:20 51°13.099 2°50.575 7.2 16 11.9 101350 48
2012-04-27 11:21 51°13.098 2°50.568 6.6 17 11.9 101360 48
2012-04-27 11:22 51°13.096 2°50.564 8.1 15 11.9 101350 47
2012-04-27 11:23 51°13.095 2°50.558 8.8 22 11.9 101350 48
2012-04-27 11:24 51°13.094 2°50.555 8.2 19 11.9 101340 47
2012-04-27 11:25 51°13.092 2°50.55 7.8 12 12 101350 47
2012-04-27 11:26 51°13.091 2°50.545 8.1 18 12 101350 46
2012-04-27 11:27 51°13.088 2°50.54 6.1 14 12 101350 48
2012-04-27 11:28 51°13.086 2°50.534 6.4 17 12 101350 46
2012-04-27 11:29 51°13.081 2°50.527 5.9 7 12 101350 47
2012-04-27 11:30 51°13.077 2°50.52 5.7 14 12 101350 48
2012-04-27 11:31 51°13.074 2°50.514 6.2 13 12.1 101350 47
2012-04-27 11:32 51°13.071 2°50.509 5.5 15 12.1 101350 48
2012-04-27 11:33 51°13.068 2°50.504 5.4 15 12.1 101350 47
2012-04-27 11:34 51°13.065 2°50.5 6.3 12 12.1 101350 47
2012-04-27 11:35 51°13.062 2°50.495 6.7 18 12.2 101340 48
2012-04-27 11:36 51°13.06 2°50.491 7.3 14 12.2 101340 47
2012-04-27 11:37 51°13.058 2°50.487 7.6 14 12.3 101340 47
2012-04-27 11:38 51°13.056 2°50.484 7.2 12 12.4 101340 45
2012-04-27 11:39 51°13.054 2°50.481 7.2 17 12.4 101340 46
2012-04-27 11:40 51°13.051 2°50.477 6.7 13 12.4 101340 45
2012-04-27 11:41 51°13.05 2°50.473 7 13 12.4 101340 46
2012-04-27 11:42 51°13.048 2°50.468 6.1 16 12.5 101340 45
2012-04-27 11:43 51°13.047 2°50.463 7.5 19 12.5 101340 45
2012-04-27 11:44 51°13.045 2°50.458 7.2 16 12.6 101340 45
2012-04-27 11:45 51°13.044 2°50.454 7.3 13 12.7 101330 45
2012-04-27 11:46 51°13.042 2°50.452 6.3 16 12.7 101330 45
2012-04-27 11:47 51°13.039 2°50.449 6.2 19 12.7 101330 43
2012-04-27 11:48 51°13.037 2°50.446 6.2 14 12.8 101330 45
2012-04-27 11:49 51°13.033 2°50.443 7.1 15 12.8 101330 44
2012-04-27 11:50 51°13.03 2°50.442 7.8 16 12.7 101330 44
2012-04-27 11:51 51°13.026 2°50.441 8.5 14 12.7 101330 43
2012-04-27 11:52 51°13.024 2°50.442 7.2 14 12.7 101320 44
2012-04-27 11:53 51°13.021 2°50.441 6.9 13 12.7 101320 44
2012-04-27 11:54 51°13.018 2°50.44 7 13 12.7 101320 42
2012-04-27 11:55 51°13.016 2°50.438 6.6 14 12.8 101320 44
2012-04-27 11:56 51°13.014 2°50.437 5.6 21 12.8 101320 44
2012-04-27 11:57 51°13.011 2°50.435 6 21 12.8 101330 43
2012-04-27 11:58 51°13.009 2°50.434 6.6 18 12.7 101330 43
2012-04-27 11:59 51°13.006 2°50.434 7.1 20 12.7 101320 44
2012-04-27 12:00 51°13.003 2°50.435 5.5 17 12.7 101330 43
2012-04-27 12:01 51°12.999 2°50.434 6 22 12.7 101320 45
2012-04-27 12:02 51°12.994 2°50.434 6 20 12.6 101330 45
2012-04-27 12:03 51°12.989 2°50.434 6.7 20 12.5 101330 45
2012-04-27 12:04 51°12.984 2°50.434 5.2 20 12.5 101330 46
2012-04-27 12:05 51°12.978 2°50.433 5 21 12.4 101330 46
2012-04-27 12:06 51°12.972 2°50.434 6.1 17 12.3 101340 47
2012-04-27 12:07 51°12.967 2°50.434 5.3 18 12.3 101340 46
2012-04-27 12:08 51°12.961 2°50.433 4.7 17 12.3 101340 46
2012-04-27 12:09 51°12.954 2°50.432 5.1 18 12.3 101340 47
2012-04-27 12:10 51°12.949 2°50.432 5.1 14 12.3 101340 46
2012-04-27 12:11 51°12.943 2°50.432 4.7 20 12.2 101350 46
2012-04-27 12:12 51°12.938 2°50.432 4.5 16 12.2 101340 46
2012-04-27 12:13 51°12.933 2°50.433 4.9 21 12.2 101350 46
2012-04-27 12:14 51°12.928 2°50.433 5.4 23 12.1 101350 47
2012-04-27 12:15 51°12.923 2°50.434 5.8 22 12.1 101350 47
2012-04-27 12:16 51°12.918 2°50.436 5.7 22 12.1 101350 48
2012-04-27 12:17 51°12.912 2°50.438 6.2 26 12.1 101350 49
2012-04-27 12:18 51°12.907 2°50.439 6.5 22 12.1 101350 47
2012-04-27 12:19 51°12.901 2°50.44 5.4 22 12.1 101350 49
2012-04-27 12:20 51°12.895 2°50.442 4.6 24 12.1 101350 49
2012-04-27 12:21 51°12.888 2°50.442 5.9 19 12.1 101350 49
2012-04-27 12:22 51°12.882 2°50.443 5.6 16 12.1 101350 49
2012-04-27 12:23 51°12.875 2°50.443 4.8 14 12.1 101360 48
2012-04-27 12:24 51°12.868 2°50.445 5.1 20 12.1 101360 47
2012-04-27 12:25 51°12.862 2°50.447 5 21 12.2 101360 47
2012-04-27 12:26 51°12.857 2°50.449 4.6 15 12.2 101360 48
2012-04-27 12:27 51°12.849 2°50.453 3.4 25 12.2 101370 48
2012-04-27 12:28 51°12.829 2°50.47 2.7 37 12.2 101360 47
2012-04-27 12:29 51°12.823 2°50.519 2.2 22 12.2 101370 49
2012-04-27 12:30 51°12.871 2°50.651 1 269 12.2 101370 48
2012-04-27 12:31 51°12.921 2°50.816 0.2 29 12.3 101370 48
2012-04-27 12:32 51°12.975 2°50.963 0.1 268 12.3 101370 48
2012-04-27 12:33 51°13.044 2°51.081 3.7 261 12.3 101380 48
2012-04-27 12:34 51°13.115 2°51.198 2.4 265 12.3 101380 49
2012-04-27 12:35 51°13.173 2°51.331 2.3 27 12.4 101380 47
2012-04-27 12:36 51°13.225 2°51.471 3.1 267 12.5 101390 47
2012-04-27 12:37 51°13.281 2°51.607 4.1 264 12.5 101380 47
2012-04-27 12:38 51°13.343 2°51.736 4.5 261 12.4 101380 48
2012-04-27 12:39 51°13.406 2°51.865 3.7 258 12.4 101380 49
2012-04-27 12:40 51°13.464 2°52.002 3.9 262 12.4 101380 47
2012-04-27 12:41 51°13.518 2°52.143 2.9 261 12.3 101380 48
2012-04-27 12:42 51°13.575 2°52.281 1.7 265 12.3 101380 48
2012-04-27 12:43 51°13.638 2°52.412 4.2 259 12.3 101390 49
2012-04-27 12:44 51°13.704 2°52.542 3.4 263 12.3 101380 49
2012-04-27 12:45 51°13.763 2°52.681 2.4 263 12.3 101390 48
2012-04-27 12:46 51°13.82 2°52.822 2.9 263 12.3 101390 47
2012-04-27 12:47 51°13.881 2°52.959 2.9 256 12.2 101400 49
2012-04-27 12:48 51°13.948 2°53.091 3.6 261 12.2 101390 49
2012-04-27 12:49 51°14.012 2°53.226 3 266 12.2 101390 49
2012-04-27 12:50 51°14.071 2°53.369 2.8 265 12.2 101390 48
2012-04-27 12:51 51°14.131 2°53.512 3.3 264 12.1 101380 48
2012-04-27 12:52 51°14.201 2°53.64 4.8 260 12.1 101380 49
2012-04-27 12:53 51°14.277 2°53.766 3.3 264 12.1 101380 48
2012-04-27 12:54 51°14.347 2°53.924 2.9 265 12 101390 47
2012-04-27 12:55 51°14.417 2°54.089 3 263 12 101390 47
2012-04-27 12:56 51°14.491 2°54.251 2.6 265 12 101390 47
2012-04-27 12:57 51°14.567 2°54.414 3.4 263 12.1 101400 47
2012-04-27 12:58 51°14.625 2°54.6 0.1 26 12.1 101400 47
2012-04-27 12:59 51°14.61 2°54.809 -999 29 12.1 101400 48
2012-04-27 13:00 51°14.532 2°54.986 2.9 15 12.1 101410 48
2012-04-27 13:01 51°14.425 2°55.119 4.4 360 12.1 101400 49
2012-04-27 13:02 51°14.323 2°55.227 4.5 17 12 101400 49
2012-04-27 13:03 51°14.229 2°55.324 4.1 9 12 101400 48
2012-04-27 13:04 51°14.127 2°55.414 3.4 16 12.1 101400 48
2012-04-27 13:05 51°14.021 2°55.492 3 5 12.1 101400 49
2012-04-27 13:06 51°13.915 2°55.565 5.7 5 12.1 101390 47
2012-04-27 13:07 51°13.827 2°55.63 4.3 359 12.2 101390 45
2012-04-27 13:08 51°13.762 2°55.711 1.7 21 12.4 101390 45
2012-04-27 13:09 51°13.701 2°55.795 0.1 35 12.5 101390 46
2012-04-27 13:10 51°13.653 2°55.863 2 32 12.7 101390 46
2012-04-27 13:11 51°13.626 2°55.894 4.5 40 12.7 101390 45
2012-04-27 13:12 51°13.624 2°55.895 4.8 42 12.8 101380 45
2012-04-27 13:13 51°13.623 2°55.892 4.9 21 12.8 101390 44
2012-04-27 13:14 51°13.623 2°55.893 5.3 22 12.8 101390 43
2012-04-27 13:15 51°13.623 2°55.893 4.5 26 12.7 101380 44
2012-04-27 13:16 51°13.623 2°55.893 4.4 21 12.8 101390 43
2012-04-27 13:17 51°13.623 2°55.894 4.2 44 12.9 101400 43
2012-04-27 13:18 51°13.623 2°55.894 0.9 39 12.9 101400 44
2012-04-27 13:19 51°13.622 2°55.895 3.4 26 13 101400 44
2012-04-27 13:20 51°13.622 2°55.895 3.5 42 13 101390 42
2012-04-27 13:21 51°13.622 2°55.894 1.3 23 12.9 101400 44
2012-04-27 13:22 51°13.622 2°55.894 3.4 25 12.9 101400 42
2012-04-27 13:23 51°13.621 2°55.893 5.3 27 12.9 101400 44
2012-04-27 13:24 51°13.622 2°55.894 5.1 20 12.8 101400 45
2012-04-27 13:25 51°13.622 2°55.894 3.2 22 12.8 101400 44
2012-04-27 13:26 51°13.623 2°55.895 3.8 20 12.8 101400 45
2012-04-27 13:27 51°13.623 2°55.895 4.5 43 12.9 101400 45
2012-04-27 13:28 51°13.623 2°55.894 3.4 24 12.8 101400 44
2012-04-27 13:29 51°13.623 2°55.894 5.2 28 12.8 101400 45
2012-04-27 13:30 51°13.623 2°55.894 5.8 26 12.7 101400 42
2012-04-27 13:31 51°13.623 2°55.894 3.8 22 12.6 101400 45
2012-04-27 13:32 51°13.623 2°55.894 3.2 24 12.8 101400 45
2012-04-27 13:33 51°13.623 2°55.894 2.3 29 12.9 101390 47
2012-04-27 13:34 51°13.623 2°55.895 2.2 22 12.7 101390 46
2012-04-27 13:35 51°13.623 2°55.895 2.9 27 12.6 101400 47
2012-04-27 13:36 51°13.623 2°55.895 3.4 20 12.6 101390 46
2012-04-27 13:37 51°13.623 2°55.894 3.5 20 12.5 101400 47
2012-04-27 13:38 51°13.623 2°55.894 1.6 22 12.6 101400 45
2012-04-27 13:39 51°13.622 2°55.895 2.9 26 12.7 101390 47
2012-04-27 13:40 51°13.622 2°55.895 3.5 27 12.7 101400 47
2012-04-27 13:41 51°13.622 2°55.894 4 30 12.6 101400 46
2012-04-27 13:42 51°13.622 2°55.895 2.6 28 12.5 101390 47
2012-04-27 13:43 51°13.622 2°55.895 4.2 28 12.4 101390 46
2012-04-27 13:44 51°13.622 2°55.894 1.7 25 12.4 101400 48
2012-04-27 13:45 51°13.623 2°55.894 2 21 12.3 101400 47
2012-04-27 13:46 51°13.622 2°55.894 -999 24 12.4 101400 47
2012-04-27 13:47 51°13.622 2°55.896 -999 25 12.4 101400 47
2012-04-27 13:48 51°13.623 2°55.896 -999 24 12.4 101390 48
2012-04-27 13:49 51°13.621 2°55.895 -999 24 12.4 101400 47
2012-04-27 13:50 51°13.621 2°55.896 -999 40 12.4 101400 47
2012-04-27 13:51 51°13.621 2°55.896 -999 24 12.4 101400 47
2012-04-27 13:52 51°13.62 2°55.895 -999 25 12.4 101400 47
2012-04-27 13:53 51°13.62 2°55.896 -999 24 12.6 101400 47
2012-04-27 13:54 51°13.62 2°55.896 -999 24 12.5 101390 46
2012-04-27 13:55 51°13.621 2°55.895 -999 39 12.4 101390 47
2012-04-27 13:56 51°13.621 2°55.895 -999 24 12.5 101390 47
2012-04-27 13:57 51°13.621 2°55.896 -999 24 12.5 101390 47
2012-04-27 13:58 51°13.621 2°55.896 -999 24 12.5 101400 47
2012-04-27 13:59 51°13.621 2°55.895 -999 44 12.5 101400 46
2012-04-27 14:00 51°13.621 2°55.895 -999 24 12.5 101400 47
2012-04-27 14:01 51°13.621 2°55.895 -999 24 12.5 101400 47
2012-04-27 14:02 51°13.62 2°55.895 -999 24 12.5 101400 46
2012-04-27 14:03 51°13.621 2°55.895 -999 24 12.5 101410 46
2012-04-27 14:04 51°13.62 2°55.895 -999 24 12.4 101410 47
2012-04-27 14:05 51°13.621 2°55.896 -999 24 12.4 101410 47
2012-04-27 14:06 51°13.622 2°55.896 -999 24 12.3 101400 47
2012-04-27 14:07 51°13.621 2°55.896 -999 24 12.3 101400 47
2012-04-27 14:08 51°13.622 2°55.896 -999 24 12.3 101400 47
2012-04-27 14:09 51°13.622 2°55.896 -999 24 12.2 101400 47
2012-04-27 14:10 51°13.622 2°55.896 -999 24 12.2 101410 47
2012-04-27 14:11 51°13.623 2°55.896 -999 24 12.2 101400 47
2012-04-27 14:12 51°13.623 2°55.895 -999 24 12.3 101400 47
2012-04-27 14:13 51°13.623 2°55.895 -999 24 12.3 101400 47
2012-04-27 14:14 51°13.622 2°55.894 -999 39 12.4 101400 46
2012-04-27 14:15 51°13.622 2°55.894 -999 24 12.4 101400 47
2012-04-27 14:16 51°13.623 2°55.894 -999 43 12.5 101400 47
2012-04-27 14:17 51°13.623 2°55.894 -999 24 12.5 101400 47
2012-04-27 14:18 51°13.623 2°55.894 -999 24 12.4 101400 46
2012-04-27 14:19 51°13.624 2°55.894 -999 24 12.4 101400 47
2012-04-27 14:20 51°13.624 2°55.895 -999 24 12.4 101400 47
2012-04-27 14:21 51°13.624 2°55.895 -999 24 12.3 101400 47
2012-04-27 14:22 51°13.624 2°55.895 -999 24 12.3 101390 47
2012-04-27 14:23 51°13.625 2°55.895 -999 24 12.2 101390 47
2012-04-27 14:24 51°13.625 2°55.895 -999 24 12.2 101390 47
2012-04-27 14:25 51°13.624 2°55.895 -999 24 12.2 101400 47
2012-04-27 14:26 51°13.624 2°55.895 -999 24 12.2 101400 46
2012-04-27 14:27 51°13.624 2°55.895 -999 24 12.2 101400 48
2012-04-27 14:28 51°13.625 2°55.895 -999 24 12.2 101410 47
2012-04-27 14:29 51°13.625 2°55.895 -999 24 12.2 101400 46
2012-04-27 14:30 51°13.624 2°55.895 -999 24 12.2 101400 47
2012-04-27 14:31 51°13.624 2°55.895 -999 24 12.2 101400 47
2012-04-27 14:32 51°13.623 2°55.895 -999 24 12.3 101400 47
2012-04-27 14:33 51°13.623 2°55.894 -999 24 12.4 101400 47
2012-04-27 14:34 51°13.623 2°55.896 -999 24 12.4 101400 45
2012-04-27 14:35 51°13.623 2°55.895 -999 24 12.4 101400 46
2012-04-27 14:36 51°13.623 2°55.894 -999 37 12.4 101410 47
2012-04-27 14:37 51°13.625 2°55.895 -999 24 12.4 101400 47
2012-04-27 14:38 51°13.623 2°55.894 -999 24 12.4 101400 47
2012-04-27 14:39 51°13.624 2°55.894 -999 40 12.4 101400 47
2012-04-27 14:40 51°13.625 2°55.895 -999 24 12.4 101410 47
2012-04-27 14:41 51°13.623 2°55.894 -999 24 12.4 101410 46
2012-04-27 14:42 51°13.622 2°55.894 -999 45 12.4 101410 45
2012-04-27 14:43 51°13.623 2°55.894 -999 24 12.3 101410 47
2012-04-27 14:44 51°13.623 2°55.894 -999 24 12.3 101410 47
2012-04-27 14:45 51°13.623 2°55.894 -999 41 12.2 101410 47
2012-04-27 14:46 51°13.625 2°55.895 -999 24 12.3 101410 47
2012-04-27 14:47 51°13.624 2°55.895 -999 24 12.3 101410 47
2012-04-27 14:48 51°13.622 2°55.894 -999 44 12.3 101410 47
2012-04-27 14:49 51°13.623 2°55.894 -999 31 12.4 101410 47
2012-04-27 14:50 51°13.622 2°55.894 -999 24 12.5 101410 46
2012-04-27 14:51 51°13.623 2°55.895 -999 41 12.4 101420 46
2012-04-27 14:52 51°13.623 2°55.895 -999 24 12.4 101420 46
2012-04-27 14:53 51°13.622 2°55.896 -999 24 12.3 101420 46
2012-04-27 14:54 51°13.623 2°55.895 -999 24 12.3 101420 46
2012-04-27 14:55 51°13.623 2°55.896 -999 24 12.2 101420 46
2012-04-27 14:56 51°13.623 2°55.896 -999 24 12.2 101420 47
2012-04-27 14:57 51°13.622 2°55.895 -999 24 12.1 101420 47
2012-04-27 14:58 51°13.621 2°55.896 -999 38 12.3 101420 47
2012-04-27 14:59 51°13.621 2°55.895 -999 39 12.4 101420 47
2012-04-27 15:00 51°13.622 2°55.896 -999 36 12.4 101420 46
2012-04-27 15:01 51°13.622 2°55.895 -999 40 12.4 101420 46
2012-04-27 15:02 51°13.622 2°55.894 -999 25 12.5 101420 46
2012-04-27 15:03 51°13.622 2°55.894 -999 44 12.5 101430 45
2012-04-27 15:04 51°13.623 2°55.894 -999 35 12.6 101430 45
2012-04-27 15:05 51°13.623 2°55.894 -999 24 12.6 101430 45
2012-04-27 15:06 51°13.623 2°55.893 -999 24 12.6 101440 44
2012-04-27 15:07 51°13.624 2°55.894 -999 24 12.5 101430 44
2012-04-27 15:08 51°13.624 2°55.893 -999 35 12.5 101430 44
2012-04-27 15:09 51°13.625 2°55.894 -999 24 12.5 101420 44
2012-04-27 15:10 51°13.624 2°55.894 -999 24 12.4 101420 44
2012-04-27 15:11 51°13.622 2°55.895 -999 24 12.4 101420 44
2012-04-27 15:12 51°13.621 2°55.895 -999 24 12.4 101420 45
2012-04-27 15:13 51°13.621 2°55.895 -999 24 12.4 101420 44
2012-04-27 15:14 51°13.621 2°55.895 -999 24 12.5 101430 43
2012-04-27 15:15 51°13.622 2°55.895 -999 24 12.5 101430 44
2012-04-27 15:16 51°13.622 2°55.894 -999 24 12.6 101430 44
2012-04-27 15:17 51°13.623 2°55.894 -999 24 12.6 101420 43
2012-04-27 15:18 51°13.623 2°55.895 -999 44 12.6 101420 44
2012-04-27 15:19 51°13.623 2°55.895 -999 24 12.5 101420 44
2012-04-27 15:20 51°13.623 2°55.895 -999 24 12.5 101420 44
2012-04-27 15:21 51°13.623 2°55.895 -999 24 12.5 101420 44
2012-04-27 15:22 51°13.623 2°55.895 -999 24 12.5 101420 43
2012-04-27 15:23 51°13.623 2°55.895 -999 43 12.6 101420 44
2012-04-27 15:24 51°13.623 2°55.897 -999 44 12.6 101420 43
2012-04-27 15:25 51°13.647 2°55.873 -999 45 12.6 101420 43
2012-04-27 15:26 51°13.667 2°55.853 -999 35 12.6 101420 44
2012-04-27 15:27 51°13.661 2°55.871 -999 24 12.6 101420 44
2012-04-27 15:28 51°13.644 2°55.94 -999 25 12.7 101420 45
2012-04-27 15:29 51°13.638 2°56.002 -999 24 12.8 101420 44
2012-04-27 15:30 51°13.636 2°56.018 -999 43 13 101420 43